This demonstration page uses our WeatherBlox Daily Observations layout. Learn more.

40.92945, -100.16068

Hourly Observations for December 18, 2016

Temp ( °F °C ) Dew Point ( °F °C ) Humidity (%) Winds ( mph kmh ) Pressure ( in mb ) Visibility ( mi km ) Precip ( " mm )
12:15 am 00:15 Clear -15 -25.9 -21 -29.4 72 72 NW 3 6 30.68 1039 10 16.0934 0 0
12:35 am 00:35 Clear -15 -25.9 -21 -29.6 71 71 NW 3 6 30.68 1039 10 16.0934 0 0
12:55 am 00:55 Clear -15 -26.1 -21 -29.6 72 72 Calm 30.68 1039 10 16.0934 0 0
1:15 am 01:15 Clear -14 -25.6 -20 -28.8 75 75 Calm 30.68 1039 10 16.0934 0 0
1:35 am 01:35 Clear -14 -25.8 -21 -29.5 71 71 NW 3 6 30.68 1039 10 16.0934 0 0
1:55 am 01:55 Clear -15 -26.1 -22 -29.8 71 71 WNW 5 7 30.68 1039 10 16.0934 0 0
2:15 am 02:15 Clear -16 -26.6 -23 -30.4 70 70 NW 3 6 30.71 1040 10 16.0934 0 0
2:35 am 02:35 Clear -16 -26.7 -23 -30.5 70 70 NNW 3 6 30.71 1040 10 16.0934 0 0
2:55 am 02:55 Clear -16 -26.8 -23 -30.5 71 71 Calm 30.71 1040 10 16.0934 0 0
3:15 am 03:15 Clear -15 -26.2 -22 -29.9 71 71 Calm 30.68 1039 10 16.0934 0 0
3:35 am 03:35 Clear -14 -25.7 -21 -29.4 71 71 Calm 30.68 1039 10 16.0934 0 0
3:55 am 03:55 Clear -14 -25.4 -21 -29.4 69 69 Calm 30.68 1039 10 16.0934 0 0
4:15 am 04:15 Clear -14 -25.8 -21 -29.5 71 71 Calm 30.68 1039 10 16.0934 0 0
4:35 am 04:35 Clear -14 -25.4 -20 -29 72 72 Calm 30.68 1039 10 16.0934 0 0
4:55 am 04:55 Clear -13 -25 -20 -28.7 71 71 W 3 6 30.68 1039 10 16.0934 0 0
5:15 am 05:15 Clear -15 -26 -21 -29.7 71 71 Calm 30.68 1039 10 16.0934 0 0
5:35 am 05:35 Clear -14 -25.5 -20 -28.8 74 74 Calm 30.68 1039 10 16.0934 0 0
5:55 am 05:55 Clear -14 -25.8 -21 -29.3 72 72 SW 3 6 30.71 1040 10 16.0934 0 0
6:15 am 06:15 Clear -14 -25.5 -20 -28.9 73 73 W 6 9 30.71 1040 10 16.0934 0 0
6:35 am 06:35 Clear -13 -25.2 -19 -28.5 74 74 W 3 6 30.71 1040 10 16.0934 0 0
6:55 am 06:55 Clear -15 -25.9 -21 -29.4 72 72 NNE 3 6 30.71 1040 10 16.0934 0 0
7:15 am 07:15 Clear -14 -25.5 -20 -28.8 74 74 Calm 30.71 1040 10 16.0934 0 0
7:35 am 07:35 Clear -15 -26 -21 -29.7 71 71 Calm 30.74 1041 10 16.0934 0 0
7:55 am 07:55 Clear -13 -25.2 -19 -28.6 73 73 Calm 30.71 1040 10 16.0934 0 0
8:15 am 08:15 Sunny -12 -24.7 -19 -28.3 72 72 Calm 30.71 1040 10 16.0934 0 0
8:35 am 08:35 Sunny -11 -24.1 -18 -27.7 72 72 Calm 30.74 1041 10 16.0934 0 0
8:55 am 08:55 Sunny -10 -23.3 -16 -26.6 74 74 Calm 30.71 1040 10 16.0934 0 0
9:15 am 09:15 Sunny -5 -20.6 -11 -24 74 74 SE 5 7 30.68 1039 10 16.0934 0 0
9:35 am 09:35 Sunny -2 -19.1 -9 -22.5 75 75 SSW 3 6 30.71 1040 10 16.0934 0 0
9:55 am 09:55 Sunny 1 -17 -6 -20.9 72 72 SW 6 9 30.68 1039 10 16.0934 0 0
10:15 am 10:15 Sunny 5 -14.9 -4 -20 65 65 SW 7 11 30.65 1038 10 16.0934 0 0
10:35 am 10:35 Sunny 6 -14.2 -4 -20 62 62 SW 7 11 30.65 1038 10 16.0934 0 0
10:55 am 10:55 Sunny 10 -12 -2 -19.1 56 56 WSW 8 13 30.62 1037 10 16.0934 0 0
11:15 am 11:15 Sunny 11 -11.5 -3 -19.4 52 52 SW 8 13 30.62 1037 10 16.0934 0 0
11:35 am 11:35 Sunny 11 -11.4 -2 -19 54 54 WSW 7 11 30.62 1037 10 16.0934 0 0
11:55 am 11:55 Sunny 14 -9.8 0 -17.9 52 52 WSW 8 13 30.59 1036 10 16.0934 0 0
12:15 pm 12:15 Sunny 17 -8.4 2 -16.9 51 51 SW 10 17 30.56 1035 10 16.0934 0 0
12:35 pm 12:35 Sunny 19 -7.4 3 -16.3 49 49 SW 9 15 30.53 1034 10 16.0934 0 0
12:55 pm 12:55 Sunny 20 -6.6 2 -16.5 46 46 SW 13 20 30.53 1034 10 16.0934 0 0
1:15 pm 13:15 Sunny 20 -6.4 2 -16.6 45 45 SW 14 22 30.53 1034 10 16.0934 0 0
1:35 pm 13:35 Sunny 21 -6 2 -16.9 42 42 SW 14 22 30.53 1034 10 16.0934 0 0
1:55 pm 13:55 Sunny 22 -5.5 3 -16.2 43 43 SW 12 19 30.53 1034 10 16.0934 0 0
2:15 pm 14:15 Sunny 23 -5.2 4 -15.8 44 44 WSW 10 17 30.53 1034 10 16.0934 0 0
2:35 pm 14:35 Sunny 23 -4.8 4 -15.4 44 44 W 8 13 30.5 1033 10 16.0934 0 0
2:55 pm 14:55 Sunny 23 -4.8 5 -15 45 45 SW 9 15 30.5 1033 10 16.0934 0 0
3:15 pm 15:15 Sunny 24 -4.2 5 -15.1 43 43 SW 12 19 30.5 1033 10 16.0934 0 0
3:35 pm 15:35 Sunny 24 -4.2 5 -14.9 43 43 SSW 10 17 30.5 1033 10 16.0934 0 0
3:55 pm 15:55 Sunny 24 -4.2 6 -14.7 44 44 SSW 10 17 30.5 1033 10 16.0934 0 0
4:15 pm 16:15 Sunny 24 -4.7 5 -15 45 45 SSW 9 15 30.5 1033 10 16.0934 0 0
4:35 pm 16:35 Sunny 23 -5.1 5 -15.1 46 46 SSW 10 17 30.53 1034 10 16.0934 0 0
4:55 pm 16:55 Sunny 22 -5.6 5 -15 48 48 SSW 10 17 30.53 1034 10 16.0934 0 0
5:15 pm 17:15 Clear 20 -6.8 5 -15.1 52 52 SSW 9 15 30.53 1034 10 16.0934 0 0
5:35 pm 17:35 Clear 17 -8.1 5 -15.2 57 57 SSW 9 15 30.59 1036 10 16.0934 0 0
5:55 pm 17:55 Clear 15 -9.3 4 -15.5 61 61 SSW 9 15 30.59 1036 10 16.0934 0 0
6:15 pm 18:15 Clear 15 -9.2 5 -15.1 63 63 SSW 8 13 30.59 1036 10 16.0934 0 0
6:35 pm 18:35 Clear 13 -10.4 4 -15.6 66 66 SSW 5 7 30.62 1037 10 16.0934 0 0
6:55 pm 18:55 Clear 14 -10.2 4 -15.4 66 66 SSW 7 11 30.59 1036 10 16.0934 0 0
7:15 pm 19:15 Clear 15 -9.6 5 -14.9 66 66 SW 7 11 30.59 1036 10 16.0934 0 0
7:35 pm 19:35 Clear 13 -10.4 4 -15.4 67 67 Calm 30.62 1037 10 16.0934 0 0
7:55 pm 19:55 Clear 13 -10.7 4 -15.5 68 68 Calm 30.62 1037 10 16.0934 0 0
8:15 pm 20:15 Clear 14 -10 4 -15.6 64 64 Calm 30.59 1036 10 16.0934 0 0
8:35 pm 20:35 Clear 11 -11.5 3 -16 70 70 Calm 30.62 1037 10 16.0934 0 0
8:55 pm 20:55 Clear 4 -15.7 -2 -19.1 75 75 N 3 6 30.68 1039 10 16.0934 0 0
9:15 pm 21:15 Clear 4 -15.7 -2 -18.9 77 77 NNE 5 7 30.68 1039 10 16.0934 0 0
9:35 pm 21:35 Clear 4 -15.5 -1 -18.5 78 78 Calm 30.71 1040 10 16.0934 0 0
9:55 pm 21:55 Clear 4 -15.6 -2 -18.7 77 77 Calm 30.71 1040 10 16.0934 0 0
10:15 pm 22:15 Clear 1 -17.3 -5 -20.4 77 77 NE 3 6 30.71 1040 10 16.0934 0 0
10:35 pm 22:35 Clear 2 -16.8 -3 -19.7 78 78 Calm 30.71 1040 10 16.0934 0 0
10:55 pm 22:55 Clear 2 -16.6 -3 -19.5 78 78 Calm 30.71 1040 10 16.0934 0 0
11:15 pm 23:15 Clear 2 -16.5 -2 -19 81 81 Calm 30.71 1040 10 16.0934 0 0
11:35 pm 23:35 Clear -1 -18.2 -6 -21 79 79 Calm 30.74 1041 10 16.0934 0 0
11:55 pm 23:55 Clear 1 -17.2 -4 -19.9 80 80 Calm 30.71 1040 10 16.0934 0 0

Powered by AerisWeather